This demonstration page uses our WeatherBlox Daily Observations layout. Learn more.

Left ArrowRight Arrow

38.88101, -77.10428

Hourly Observations for December 18, 2015

Temp ( °F °C ) Dew Point ( °F °C ) Humidity (%) Winds ( mph kmh ) Pressure ( in mb ) Visibility ( mi km ) Precip ( " mm )
12:39 am 00:39 Cloudy 52 11.1 50 10 93 93 N N/A 29.77 1008 9 14 N/A
12:52 am 00:52 Cloudy 51 10.6 49 9.4 92 92 N N/A 29.77 1008 10 16 N/A
1:11 am 01:11 Cloudy 52 11.1 49 9.4 89 89 NNW 5 7 29.80 1009 10 16 N/A
1:52 am 01:52 Partly Cloudy 51 10.6 46 7.8 83 83 NNW 9 15 29.80 1009 10 16 N/A
2:52 am 02:52 Cloudy 50 10 42 5.6 74 74 N 10 17 29.81 1010 10 16 N/A
3:52 am 03:52 Cloudy 49 9.4 41 5 74 74 NNW 9 15 29.81 1010 10 16 N/A
4:52 am 04:52 Cloudy 48 8.9 38 3.3 68 68 NNW 12 19 29.81 1009 10 16 N/A
5:52 am 05:52 Cloudy 47 8.3 35 1.7 63 63 NNW 16 26 29.83 1010 10 16 N/A
6:52 am 06:52 Cloudy 46 7.8 34 1.1 63 63 NNW 17 28 29.83 1010 10 16 N/A
7:52 am 07:52 Cloudy 45 7.2 32 undefined 61 61 NW 13 20 29.84 1011 10 16 N/A
8:52 am 08:52 Cloudy 44 6.7 31 -0.6 60 60 N 13 20 29.86 1011 10 16 N/A
9:52 am 09:52 Cloudy 44 6.7 31 -0.6 60 60 NW 17 28 29.87 1011 10 16 N/A
10:52 am 10:52 Mostly Cloudy 45 7.2 31 -0.6 58 58 NNW 16 26 29.86 1011 10 16 N/A
11:52 am 11:52 Mostly Cloudy 44 6.7 29 -1.7 55 55 NNW 16 26 29.84 1011 10 16 N/A
12:52 pm 12:52 Mostly Cloudy 45 7.2 29 -1.7 54 54 NNW 15 24 29.82 1010 10 16 N/A
1:52 pm 13:52 Sunny 45 7.2 27 -2.8 49 49 WNW 18 30 29.80 1009 10 16 N/A
2:52 pm 14:52 Mostly Cloudy 44 6.7 27 -2.8 51 51 WNW 13 20 29.83 1010 10 16 N/A
3:35 pm 15:35 Mostly Cloudy 44 6.7 26 -3.3 49 49 NW 17 28 29.85 1011 10 16 N/A
3:52 pm 15:52 Mostly Cloudy 43 6.1 26 -3.3 51 51 NW 14 22 29.86 1011 10 16 N/A
4:23 pm 16:23 Partly Cloudy 42 5.6 26 -3.3 53 53 NNW 17 28 29.88 1012 10 16 N/A
4:52 pm 16:52 Partly Cloudy 41 5 26 -3.3 55 55 NW 14 22 29.89 1012 10 16 N/A
5:52 pm 17:52 Partly Cloudy 40 4.4 24 -4.4 53 53 NW 17 28 29.92 1013 10 16 N/A
6:52 pm 18:52 Partly Cloudy 40 4.4 23 -5 51 51 NNW 20 31 29.93 1014 10 16 N/A
7:52 pm 19:52 Mostly Cloudy 40 4.4 20 -6.7 45 45 NW 26 43 29.98 1015 10 16 N/A
8:16 pm 20:16 Mostly Clear 37 3 18 -8 45 45 NW 15 24 30.00 1016 10 16 N/A
8:52 pm 20:52 Mostly Clear 37 2.8 18 -7.8 46 46 WNW 8 13 30.00 1016 10 16 N/A
9:52 pm 21:52 Mostly Clear 37 2.8 19 -7.2 48 48 WNW 17 28 30.01 1016 10 16 N/A
10:52 pm 22:52 Partly Cloudy 37 2.8 19 -7.2 48 48 WNW 12 19 30.03 1017 10 16 N/A
11:52 pm 23:52 Mostly Clear 36 2.2 20 -6.7 52 52 W 7 11 30.06 1018 10 16 N/A

Powered by AerisWeather